When you browse on this site, cookies collect data to enhance your experience and personalize the content and advertising you see.
Visit our Privacy Policy to learn more. By continuing to use the site, you agree to this use of cookies and data.

Hourly Weather Cabimas

Today, 3 July, Friday

Time Temperature Precipitation Wind Pressure Humidity
00:00 +27°C° 0 mm 1 mps 757 mmHg 85%
01:00 +27°C° 0 mm 1 mps 757 mmHg 85%
02:00 +27°C° 0 mm 1 mps 757 mmHg 85%
03:00 +27°C° 0 mm 1 mps 756 mmHg 85%
04:00 +26°C° 0 mm 1 mps 756 mmHg 85%
05:00 +27°C° 0 mm 1 mps 756 mmHg 82%
06:00 +28°C° 0 mm 1 mps 757 mmHg 80%
07:00 +28°C° 0 mm 1 mps 757 mmHg 78%
08:00 +30°C° 0 mm 1 mps 757 mmHg 72%
09:00 +32°C° 0 mm 2 mps 757 mmHg 66%
10:00 +35°C° 0 mm 2 mps 757 mmHg 60%
11:00 +35°C° 0 mm 2 mps 757 mmHg 58%
12:00 +36°C° 0 mm 2 mps 756 mmHg 56%
13:00 +37°C° 0 mm 2 mps 755 mmHg 54%
14:00 +36°C° 0.4 mm 2 mps 755 mmHg 59%
15:00 +35°C° 0.4 mm 3 mps 754 mmHg 63%
16:00 +34°C° 0.4 mm 3 mps 754 mmHg 68%
17:00 +33°C° 0 mm 4 mps 754 mmHg 71%
18:00 +32°C° 0 mm 4 mps 755 mmHg 75%
19:00 +30°C° 0 mm 5 mps 755 mmHg 78%
20:00 +29°C° 0 mm 4 mps 756 mmHg 80%
21:00 +29°C° 0 mm 4 mps 757 mmHg 83%
22:00 +29°C° 0 mm 3 mps 757 mmHg 85%
23:00 +28°C° 0.1 mm 3 mps 757 mmHg 84%

Tomorrow, 4 July, Saturday

Time Temperature Precipitation Wind Pressure Humidity
00:00 +28°C° 0.1 mm 4 mps 757 mmHg 83%
01:00 +27°C° 0.1 mm 4 mps 756 mmHg 82%
02:00 +27°C° 0.2 mm 3 mps 756 mmHg 82%
03:00 +27°C° 0.2 mm 3 mps 756 mmHg 83%
04:00 +27°C° 0.2 mm 2 mps 756 mmHg 83%
05:00 +27°C° 0 mm 2 mps 757 mmHg 81%
06:00 +28°C° 0 mm 2 mps 757 mmHg 79%
07:00 +28°C° 0 mm 1 mps 757 mmHg 77%
08:00 +30°C° 0 mm 1 mps 757 mmHg 70%
09:00 +32°C° 0 mm 1 mps 757 mmHg 63%
10:00 +34°C° 0 mm 1 mps 757 mmHg 56%
11:00 +35°C° 0 mm 1 mps 757 mmHg 54%
12:00 +36°C° 0 mm 2 mps 756 mmHg 53%
13:00 +36°C° 0 mm 3 mps 755 mmHg 51%
14:00 +36°C° 0 mm 3 mps 755 mmHg 53%
15:00 +35°C° 0 mm 4 mps 755 mmHg 55%
16:00 +35°C° 0 mm 4 mps 754 mmHg 57%
17:00 +33°C° 0 mm 5 mps 755 mmHg 63%
18:00 +32°C° 0 mm 5 mps 755 mmHg 68%
19:00 +29°C° 0 mm 5 mps 756 mmHg 74%
20:00 +29°C° 0 mm 5 mps 757 mmHg 76%
21:00 +28°C° 0 mm 4 mps 757 mmHg 79%
22:00 +28°C° 0 mm 3 mps 758 mmHg 81%
23:00 +28°C° 0 mm 3 mps 758 mmHg 82%

Day after tomorrow, 5 July, Sunday

Time Temperature Precipitation Wind Pressure Humidity
00:00 +27°C° 0 mm 3 mps 757 mmHg 82%
01:00 +27°C° 0 mm 3 mps 757 mmHg 83%
02:00 +27°C° 0 mm 2 mps 757 mmHg 82%
03:00 +26°C° 0 mm 2 mps 757 mmHg 81%
04:00 +26°C° 0 mm 2 mps 757 mmHg 80%
05:00 +27°C° 0 mm 2 mps 758 mmHg 79%
06:00 +27°C° 0 mm 1 mps 758 mmHg 77%
07:00 +28°C° 0 mm 1 mps 758 mmHg 76%
08:00 +30°C° 0 mm 1 mps 758 mmHg 69%
09:00 +32°C° 0 mm 1 mps 758 mmHg 62%
10:00 +34°C° 0 mm 1 mps 758 mmHg 55%
11:00 +34°C° 0 mm 1 mps 758 mmHg 53%
12:00 +36°C° 0 mm 2 mps 757 mmHg 51%
13:00 +37°C° 0 mm 2 mps 756 mmHg 49%
14:00 +36°C° 0 mm 3 mps 756 mmHg 52%
15:00 +35°C° 0 mm 4 mps 755 mmHg 55%
16:00 +34°C° 0 mm 4 mps 755 mmHg 57%
17:00 +33°C° 0 mm 5 mps 755 mmHg 60%
18:00 +32°C° 0 mm 5 mps 756 mmHg 62%
19:00 +30°C° 0 mm 6 mps 757 mmHg 64%
20:00 +29°C° 0 mm 5 mps 757 mmHg 68%
21:00 +29°C° 0 mm 4 mps 758 mmHg 72%
22:00 +28°C° 0 mm 4 mps 758 mmHg 76%
23:00 +28°C° 0 mm 3 mps 758 mmHg 77%

6 July, Monday

Time Temperature Precipitation Wind Pressure Humidity
00:00 +28°C° 0 mm 3 mps 758 mmHg 78%
01:00 +27°C° 0 mm 3 mps 757 mmHg 79%
02:00 +27°C° 0 mm 3 mps 757 mmHg 79%
03:00 +27°C° 0 mm 3 mps 757 mmHg 79%
04:00 +26°C° 0 mm 3 mps 757 mmHg 79%
05:00 +27°C° 0.2 mm 3 mps 757 mmHg 78%
06:00 +27°C° 0.2 mm 2 mps 758 mmHg 76%
07:00 +28°C° 0.2 mm 2 mps 758 mmHg 74%
08:00 +30°C° 0 mm 2 mps 758 mmHg 68%
09:00 +32°C° 0 mm 2 mps 758 mmHg 62%
10:00 +34°C° 0 mm 1 mps 758 mmHg 56%
11:00 +35°C° 0 mm 2 mps 758 mmHg 55%
12:00 +35°C° 0 mm 2 mps 757 mmHg 55%
13:00 +35°C° 0 mm 2 mps 756 mmHg 55%
14:00 +34°C° 0.4 mm 2 mps 756 mmHg 60%
15:00 +34°C° 0.4 mm 2 mps 756 mmHg 66%
16:00 +32°C° 0.4 mm 2 mps 755 mmHg 71%
17:00 +30°C° 0.5 mm 2 mps 756 mmHg 74%
18:00 +29°C° 0.5 mm 3 mps 756 mmHg 77%
19:00 +28°C° 0.5 mm 3 mps 757 mmHg 81%
20:00 +28°C° 0.1 mm 3 mps 757 mmHg 82%
21:00 +27°C° 0.1 mm 3 mps 758 mmHg 84%
22:00 +27°C° 0.1 mm 3 mps 758 mmHg 86%
23:00 +27°C° 0.2 mm 3 mps 758 mmHg 86%

7 July, Tuesday

Time Temperature Precipitation Wind Pressure Humidity
00:00 +27°C° 0.2 mm 2 mps 758 mmHg 86%
01:00 +27°C° 0.2 mm 2 mps 757 mmHg 86%
02:00 +27°C° 0.6 mm 2 mps 757 mmHg 86%
03:00 +27°C° 0.6 mm 3 mps 757 mmHg 86%
04:00 +27°C° 0.6 mm 3 mps 757 mmHg 86%
05:00 +27°C° 0.2 mm 3 mps 757 mmHg 85%
06:00 +28°C° 0.2 mm 3 mps 758 mmHg 83%
07:00 +28°C° 0.2 mm 3 mps 758 mmHg 81%
08:00 +30°C° 1.2 mm 3 mps 758 mmHg 75%
09:00 +31°C° 1.2 mm 3 mps 758 mmHg 68%
10:00 +34°C° 1.2 mm 4 mps 758 mmHg 61%
11:00 +34°C° 1.3 mm 4 mps 758 mmHg 61%
12:00 +34°C° 1.3 mm 4 mps 757 mmHg 62%
13:00 +35°C° 1.3 mm 4 mps 757 mmHg 62%
14:00 +34°C° 1.4 mm 3 mps 756 mmHg 67%
15:00 +32°C° 1.4 mm 2 mps 756 mmHg 71%
16:00 +31°C° 1.4 mm 1 mps 756 mmHg 76%
17:00 +30°C° 0.3 mm 1 mps 756 mmHg 79%
18:00 +29°C° 0.3 mm 1 mps 756 mmHg 83%
19:00 +28°C° 0.3 mm 1 mps 757 mmHg 86%
20:00 +28°C° 0 mm 1 mps 757 mmHg 87%
21:00 +27°C° 0 mm 2 mps 758 mmHg 89%
22:00 +27°C° 0 mm 2 mps 758 mmHg 90%
23:00 +27°C° 0 mm 2 mps 758 mmHg 91%

8 July, Wednesday

Time Temperature Precipitation Wind Pressure Humidity
00:00 +27°C° 0 mm 2 mps 757 mmHg 92%
01:00 +26°C° 0 mm 1 mps 757 mmHg 93%
02:00 +26°C° 0.3 mm 2 mps 757 mmHg 93%
03:00 +26°C° 0.3 mm 2 mps 757 mmHg 93%
04:00 +26°C° 0.3 mm 2 mps 757 mmHg 93%
05:00 +26°C° 0.1 mm 2 mps 757 mmHg 91%
06:00 +27°C° 0.1 mm 2 mps 757 mmHg 90%
07:00 +27°C° 0.1 mm 1 mps 758 mmHg 88%
08:00 +29°C° 0 mm 1 mps 758 mmHg 80%
09:00 +32°C° 0 mm 1 mps 758 mmHg 71%
10:00 +34°C° 0 mm 1 mps 758 mmHg 63%
11:00 +34°C° 0.1 mm 1 mps 757 mmHg 59%
12:00 +36°C° 0.1 mm 2 mps 757 mmHg 56%
13:00 +37°C° 0.1 mm 2 mps 756 mmHg 53%
14:00 +36°C° 0.2 mm 3 mps 756 mmHg 57%
15:00 +35°C° 0.2 mm 3 mps 755 mmHg 61%
16:00 +34°C° 0.2 mm 4 mps 755 mmHg 65%
17:00 +33°C° 0 mm 4 mps 755 mmHg 69%
18:00 +32°C° 0 mm 5 mps 756 mmHg 73%
19:00 +29°C° 0 mm 5 mps 756 mmHg 76%
20:00 +29°C° 0 mm 4 mps 757 mmHg 78%
21:00 +29°C° 0 mm 4 mps 757 mmHg 80%
22:00 +28°C° 0 mm 3 mps 758 mmHg 83%
23:00 +28°C° 0 mm 3 mps 758 mmHg 83%
Show more